Tracking 18850 objects as of 21-Nov-2017
HD Live streaming from Space Station
objects crossing your sky now

USA 142

Track USA 142 now!
USA 142 is classified as:


NORAD ID: 25669
Int'l Code: 1999-017A
Perigee: 623.7 km
Apogee: 34,714.6 km
Inclination: 29.2 °
Period: 618.3 minutes
Semi major axis: 24040 km
RCS: Unknown
Launch date: April 9, 1999
Source: United States (US)
Launch site: AIR FORCE EASTERN TEST RANGE (AFETR)
aabbcc
Your satellite tracking list
Your tracking list is empty




NASA's NSSDC Master Catalog

Two Line Element Set (TLE):
1 25669U 99017A   17285.32997468 0.00000000  00000-0  00000-0 0    08
2 25669  29.2037  77.2660 7090421 186.8633 152.3015  2.32915274    01
Source of the keplerian elements: McCants